Hourly Data Report for September 02, 2010

PETERBOROUGH AWOS
ONTARIO

44°14'00.000" N
78°22'00.000" W
191.40 m
6166420

Download Data

Hourly Data (September 2010)
Hourly Data Report for September 2, 2010
TIME
LST
Temp Definition
°C
Dew Point Definition
°C
Rel Hum Definition
%
Precip. Amount Definition
mm

Wind Dir Definition
10's deg

Wind Spd Definition
km/h
Visibility Definition
km
Stn Press Definition
kPa
Hmdx Definition


Wind Chill Definition


Weather Definition


00:00 21.1 19.1 88   LegendMM LegendMM 15.0 99.06 28    
01:00 19.6 19.0 96   LegendMM LegendMM 9.7 99.06      
02:00 19.5 19.0 97   LegendMM LegendMM 9.7 98.98      
03:00 18.4 18.1 98   LegendMM LegendMM 8.0 98.97      
04:00 18.5 18.2 98   LegendMM LegendMM 6.4 98.96      
05:00 18.3 18.0 98   LegendMM LegendMM 4.0 98.96      
06:00 19.1 18.9 99   LegendMM LegendMM 4.8 98.98      
07:00 21.1 19.3 89   LegendMM LegendMM 11.3 99.02 28    
08:00 23.7 20.9 84   LegendMM LegendMM 12.9 98.99 32    
09:00 24.9 21.6 82   LegendMM LegendMM 15.0 99.01 34    
10:00 24.4 20.9 81   LegendMM LegendMM 15.0 99.04 33    
11:00 25.2 21.0 78   LegendMM LegendMM 15.0 99.04 34    
12:00 25.5 20.9 76   LegendMM LegendMM 15.0 99.02 34    
13:00 26.5 20.9 71   LegendMM LegendMM 15.0 99.01 35    
14:00 26.5 20.7 71   LegendMM LegendMM 15.0 98.98 35    
15:00 26.6 20.9 71   LegendMM LegendMM 15.0 98.93 35    
16:00 27.3 21.3 70   LegendMM LegendMM 15.0 98.90 36    
17:00 26.0 21.1 74   LegendMM LegendMM 15.0 98.90 35    
18:00 24.9 21.0 79   LegendMM LegendMM 15.0 98.87 33    
19:00 22.3 21.4 95   LegendMM LegendMM 15.0 98.88 31   Rain
20:00 22.0 21.8 99   LegendMM LegendMM 9.7 98.85 31    
21:00 21.2 21.2 100   LegendMM LegendMM 3.7 98.81 30    
22:00 21.2 21.2 100   LegendMM LegendMM 8.0 98.73 30    
23:00 21.2 20.9 98   LegendMM LegendMM 12.9 98.70 30    

Notes on Data Quality.

Legend

  • E = Estimated
  • M = Missing
  • NA = Not Available*
  • [empty] = Indicates an unobserved value
Date modified: